Weather History for KMTO - October, 2013

Change the Weather History Date:

Thursday, October 10, 2013

  Actual Average Record
Temperature  
Mean Temperature 64 °F 57 °F  
Max Temperature 78 °F 68 °F 86 °F (1954)
Min Temperature 50 °F 46 °F 26 °F (1964)
Degree Days  
Heating Degree Days 1 9  
Month to date heating degree days 29 77  
Since 1 July heating degree days 69 148  
Cooling Degree Days 0 1  
Month to date cooling degree days 29 12  
Year to date cooling degree days 1005 1050  
Growing Degree Days 14 (Base 50)    
Moisture  
Dew Point 54 °F    
Average Humidity 72    
Maximum Humidity 100    
Minimum Humidity 43    
Precipitation  
Precipitation 0.00 in 0.09 in 1.78 in (1959)
Month to date precipitation 0.68 0.86  
Year to date precipitation 39.41 29.83  
Sea Level Pressure  
Sea Level Pressure 30.11 in    
Wind  
Wind Speed 3 mph (SSE)    
Max Wind Speed 9 mph    
Max Gust Speed 13 mph    
Visibility 10 miles    
Events      
T = Trace of Precipitation, MM = Missing Value Source: NWS Daily Summary

Daily Weather History Graph

Daily Weather History Graph

Search for Another Location

Airport or City:

Trip Planner

Search our weather history database for the weather conditions in past years. The results will help you decide how hot, cold, wet, or windy it might be!

Date:

Astronomy

Oct. 10, 2013 Rise Set
Actual Time 6:58 AM CDT 6:21 PM CDT
Civil Twilight 6:31 AM CDT 6:48 PM CDT
Nautical Twilight 6:00 AM CDT 7:19 PM CDT
Astronomical Twilight 5:28 AM CDT 7:50 PM CDT
Moon 12:48 PM CDT (10/10) 10:59 PM CDT (10/10)
Length of Visible Light 12h 16m
Length of Day
11h 22m
Waxing Crescent, 36% of the Moon is Illuminated
Oct 10
Waxing Crescent
Oct 11
First Quarter
Oct 18
Full
Oct 26
Last Quarter
Nov 3
New

Hourly Weather History & Observations

Time (CDT) Temp. Dew Point Humidity Pressure Visibility Wind Dir Wind Speed Gust Speed Precip Events Conditions
12:53 AM 55.9 °F 51.1 °F 84% 30.13 in 10.0 mi Calm Calm - N/A   Clear
1:53 AM 52.0 °F 50.0 °F 93% 30.13 in 10.0 mi SSE 3.5 mph - N/A   Clear
2:53 AM 52.0 °F 50.0 °F 93% 30.13 in 10.0 mi Calm Calm - N/A   Clear
3:53 AM 53.1 °F 51.1 °F 93% 30.13 in 10.0 mi Calm Calm - N/A   Clear
4:53 AM 52.0 °F 51.1 °F 97% 30.14 in 10.0 mi Calm Calm - N/A   Clear
5:53 AM 53.1 °F 51.1 °F 93% 30.15 in 10.0 mi Calm Calm - N/A   Mostly Cloudy
6:53 AM 52.0 °F 51.1 °F 97% 30.16 in 7.0 mi Calm Calm - N/A   Clear
7:53 AM 53.1 °F 52.0 °F 96% 30.16 in 5.0 mi Calm Calm - N/A   Clear
8:53 AM 59.0 °F 55.0 °F 87% 30.17 in 10.0 mi Calm Calm - N/A   Clear
9:53 AM 66.9 °F 57.9 °F 73% 30.17 in 10.0 mi Calm Calm - N/A   Clear
10:53 AM 72.0 °F 57.9 °F 61% 30.17 in 10.0 mi Calm Calm - N/A   Clear
11:53 AM 73.9 °F 57.0 °F 55% 30.15 in 10.0 mi Variable 3.5 mph - N/A   Mostly Cloudy
12:53 PM 73.9 °F 55.9 °F 53% 30.13 in 10.0 mi Calm Calm - N/A   Scattered Clouds
1:53 PM 75.9 °F 55.0 °F 48% 30.10 in 10.0 mi Variable 3.5 mph - N/A   Clear
2:53 PM 75.9 °F 55.0 °F 48% 30.08 in 10.0 mi SSW 4.6 mph - N/A   Mostly Cloudy
3:53 PM 75.9 °F 55.0 °F 48% 30.06 in 10.0 mi ESE 8.1 mph - N/A   Partly Cloudy
4:53 PM 77.0 °F 54.0 °F 45% 30.05 in 10.0 mi ESE 4.6 mph - N/A   Mostly Cloudy
5:53 PM 72.0 °F 55.9 °F 57% 30.05 in 10.0 mi SSE 3.5 mph - N/A   Clear
6:53 PM 68.0 °F 55.9 °F 65% 30.05 in 10.0 mi Calm Calm - N/A   Clear
7:53 PM 64.0 °F 55.9 °F 75% 30.05 in 10.0 mi SSE 4.6 mph - N/A   Clear
8:53 PM 63.0 °F 55.0 °F 75% 30.05 in 10.0 mi SSE 4.6 mph - N/A   Clear
9:53 PM 61.0 °F 55.0 °F 81% 30.05 in 10.0 mi SSE 4.6 mph - N/A   Clear
10:53 PM 59.0 °F 54.0 °F 83% 30.05 in 10.0 mi SSE 5.8 mph - N/A   Clear
11:53 PM 57.9 °F 54.0 °F 87% 30.04 in 10.0 mi SSE 5.8 mph - N/A   Partly Cloudy